Location: Bh?mavarapp?du
(16.7041°N, 80.6518°E)
Time: 07:22:19
(UTC+00:00)

SEDSat Delta rocket - Pass Details

Date: 21 April 2021
Orbit: 533 x 1000 km, 31.4° (Epoch: 06 May)

Event Time Altitude Azimuth Distance (km) Brightness Sun altitude
Rises 14:45:53 0° 298° (WNW) 3,705 8.4 -26.3°
Reaches altitude 10° 14:48:36 10° 298° (WNW) 2,754 7.4 -26.9°
Maximum altitude 14:55:24 87° 211° (SSW) 970 3.8 -28.3°
Enters shadow 14:55:48 80° 138° (SE) 979 3.8 -28.4°
